#timestamp,LO_Frequency,Hit,StdDev 
1509361215.9,286047001.9,N
1509361235.7,286047005.4,Y
1509361255.6,286047005.2,P
1509361275.4,286047001.3,N
1509361295.2,286047005.4,N
1509361315.1,286047004.9,N
1509361316.0,286047004.9,N
1509361335.8,286047006.7,N
1509361355.6,286047005.1,N
1509361375.5,286047001.3,N
1509361395.3,286047001.7,N
1509361415.2,286047005.9,N
1509361435.9,286047005.0,N
1509361455.7,286047004.7,N
1509361475.6,286047005.5,N
1509361495.4,286047000.9,N
1509361515.2,286046999.8,N
1509361535.1,286047000.6,N
1509361536.0,286047000.6,N
1509361555.8,286047000.6,N
1509361575.6,286047001.5,N
1509361595.5,286046998.8,N
1509361615.3,286046999.4,N
1509361635.1,286046996.7,N
1509361655.9,286046996.8,N
1509361675.7,286046995.5,N
1509361695.5,286046997.1,N
1509361715.4,286046999.6,N
1509361735.2,286047000.2,N
1509361755.0,286046999.1,N
1509361755.9,286046999.1,N
1509361775.8,286046997.7,N
1509361795.6,286046998.8,N
1509361815.4,286047003.9,N
1509361835.3,286047002.1,N
1509361855.1,286047002.7,N
1509361875.8,286047003.5,N
1509361895.7,286047006.8,N
1509361915.5,286047010.3,Y
1509361935.3,286047009.6,P
1509361955.2,286047004.5,N
1509361975.0,286047003.9,N
1509361975.9,286047003.9,N
1509361995.8,286047005.3,N
1509362015.6,286047005.6,N
1509362035.4,286047005.7,N
1509362055.3,286047005.4,N
1509362075.1,286047009.8,Y
1509362076.0,286047009.8,P
1509362095.8,286047004.8,N
1509362115.7,286047005.4,N
1509362135.5,286047005.3,N
1509362155.3,286047005.1,N
1509362175.2,286047004.8,N
1509362195.9,286047004.7,N
1509362215.7,286047002.1,N
1509362235.6,286047001.2,N
1509362255.4,286046998.6,N
1509362275.2,286046997.5,N
1509362295.1,286047000.8,N
1509362296.0,286047000.8,N
1509362315.8,286046996.8,N
1509362335.6,286046999.5,N
1509362355.5,286046997.8,N
1509362375.3,286046998.8,N
1509362395.1,286047000.4,N
1509362415.9,286047000.7,N
1509362435.7,286046996.2,N
1509362455.5,286046999.4,N
1509362475.4,286046998.2,N
1509362495.2,286047000.4,N
1509362515.0,286047006.0,N
1509362515.9,286047006.0,N
1509362535.8,286047001.0,N
1509362555.6,286047000.4,N
1509362575.5,286046999.9,N
1509362595.3,286047002.3,N
1509362615.1,286047000.3,N
1509362635.9,286047000.3,N
1509362655.7,286047004.3,N
1509362675.5,286047002.6,N
1509362695.4,286047003.6,N
1509362715.2,286047003.5,N
1509362735.0,286047005.7,N
1509362735.9,286047005.7,N
1509362755.8,286047005.2,N
1509362775.6,286047005.6,N
1509362795.4,286047007.7,N
1509362815.3,286047009.4,Y
1509362835.1,286047007.0,P
1509362855.8,286047012.3,P
1509362875.7,286047013.5,P
1509362895.5,286047013.5,N
1509362915.4,286047016.2,Y
1509362935.2,286047009.2,P
1509362955.0,286047010.4,P
1509362955.9,286047010.4,P
1509362975.8,286047009.8,Y
1509362995.6,286047002.6,P
1509363015.4,286046999.7,N
1509363035.3,286047002.4,N
1509363055.1,286047005.9,N
1509363075.8,286047003.3,N
1509363095.7,286047005.1,N
1509363115.5,286047007.5,N
1509363135.3,286047004.8,N
1509363155.2,286047004.6,N
1509363175.0,286047007.0,N
1509363175.9,286047007.0,N
1509363195.8,286047001.3,N
1509363215.6,286047000.8,N
1509363235.4,286047000.6,N
1509363255.3,286047000.9,N
1509363275.1,286046997.3,N
1509363276.0,286046997.3,N
1509363295.8,286046995.2,N
1509363315.7,286046999.1,N
1509363335.5,286046999.1,N
1509363355.3,286046997.2,N
1509363375.2,286046997.3,N
1509363395.9,286046997.5,N
1509363415.7,286046995.7,N
1509363435.6,286047001.1,N
1509363455.4,286046998.0,N
1509363475.2,286046993.4,N
1509363495.1,286046993.4,N
1509363496.0,286046993.4,N
1509363515.8,286046992.2,N
1509363535.6,286046990.1,N
1509363555.5,286046989.6,N
1509363575.3,286046985.4,N
1509363595.1,286046985.3,N
1509363615.9,286046985.3,N
1509363635.7,286046988.0,N
1509363655.5,286046988.5,N
1509363675.4,286046989.0,N
1509363695.2,286046991.0,N
1509363715.0,286046988.5,N
1509363716.0,286046988.5,N
1509363735.8,286046992.8,N
1509363755.6,286046992.8,N
1509363775.5,286046989.0,N
1509363795.3,286046993.1,N
1509363815.1,286046993.9,N
1509363835.9,286046994.7,N
1509363855.7,286046992.1,N
1509363875.5,286046992.8,N
1509363895.4,286046992.7,N
1509363915.2,286046987.3,Y
1509363935.0,286046998.6,P
1509363935.9,286046998.6,N
1509363955.8,286046997.3,N
1509363975.6,286046995.5,N
1509363995.4,286046997.9,N
1509364015.3,286046995.0,N
1509364035.1,286047000.0,N
1509364055.9,286047000.5,N
1509364075.7,286047000.2,N
1509364095.5,286047000.1,N
1509364115.4,286047001.6,N
1509364135.2,286047000.3,N
1509364155.0,286046998.5,N
1509364155.9,286046998.5,N
1509364175.8,286047004.4,N
1509364195.6,286047000.3,N
1509364215.4,286046999.1,N
1509364235.3,286046994.9,N
1509364255.1,286046999.6,N
1509364256.0,286046999.6,N
1509364275.8,286046998.6,N
1509364295.7,286046997.9,N
1509364315.5,286046999.5,N
1509364335.3,286046998.3,N
1509364355.2,286046999.5,N
1509364375.9,286046997.2,N
1509364395.7,286046997.5,N
1509364415.6,286046998.1,N
1509364435.4,286046999.5,N
1509364455.2,286046997.4,N
1509364475.1,286046994.9,N
1509364476.0,286046994.9,N
1509364495.8,286046995.0,N
1509364515.6,286046995.1,N
1509364535.5,286046998.0,N
1509364555.3,286046994.5,N
1509364575.1,286046995.3,N
1509364595.9,286046995.3,N
1509364615.7,286046991.9,Y
1509364635.6,286046995.6,P
1509364655.4,286046995.8,P
1509364675.2,286046993.3,P
1509364695.1,286046998.4,N
1509364696.0,286046998.4,N
1509364715.8,286046996.9,N
1509364735.6,286047000.9,N
1509364755.5,286046996.8,N
1509364775.3,286046995.1,N
1509364795.1,286046997.5,N
